Regional Weather Roundup
Issued by NWS Little Rock, AR

Home | Current Version | Previous Version | Text Only | Print | Product List | Glossary Off
Versions: 1 2 3 4 5 6 7 8 9 10 11 12 13 14 15 16 17 18 19 20 21 22 23 24 25 26 27 28 29 30 31 32 33 34 35 36 37 38 39 40 41 42 43 44 45 46 47 48 49 50

000
ASUS44 KLZK 242305
RWRLZK

WEATHER ROUNDUP FOR ARKANSAS
NATIONAL WEATHER SERVICE LITTLE ROCK AR
600 PM CDT SUN SEP 24 2017

NOTE: "FAIR" INDICATES FEW OR NO CLOUDS BELOW 12,000 FEET WITH NO
SIGNIFICANT WEATHER AND/OR OBSTRUCTIONS TO VISIBILITY.

ARZ001-003-010-029-250000-
NORTHWEST ARKANSAS

CITY           SKY/WX    TMP DP  RH WIND       PRES   REMARKS
FAYETTEVILLE   SUNNY     85  66  53 SE5       29.93S HX  87
FORT SMITH     SUNNY     86  64  47 SE13G21   29.88S HX  87
HARRISON       CLOUDY    79  64  60 SE6       29.97F
BENTONVILLE    SUNNY     87  63  44 SW8       29.95S HX  88
ROGERS         SUNNY     84  64  50 SE5       29.95S HX  85
SILOAM SPGS    SUNNY     86  65  49 SE3       29.93  HX  88
HIGHFILL       SUNNY     87  63  44 S8        29.93F HX  88
SPRINGDALE     MOSUNNY   84  63  48 S7        29.95S HX  85
$$

ARZ004-005-016-250000-
NORTH CENTRAL ARKANSAS

CITY           SKY/WX    TMP DP  RH WIND       PRES   REMARKS
BATESVILLE     CLOUDY    87  67  51 E12       29.94S HX  90
FLIPPIN        SUNNY     87  67  51 VRB5      29.94S HX  90
MTN HOME       SUNNY     86  64  47 VRB3      29.94S HX  87
$$

ARZ040-041-250000-
WEST CENTRAL ARKANSAS

CITY           SKY/WX    TMP DP  RH WIND       PRES   REMARKS
MENA           MOSUNNY   82  68  61 NE5       29.94R HX  85
MOUNT IDA      CLOUDY    74  69  85 CALM      29.90F
$$

ARZ009-017-025-026-028-250000-
NORTHEAST ARKANSAS

CITY           SKY/WX    TMP DP  RH WIND       PRES   REMARKS
JONESBORO      SUNNY     87  69  54 SE8       29.95S HX  91
NEWPORT        PTSUNNY   76  72  87 E6        29.95S
BLYTHEVILLE    CLOUDY    78  69  73 NE5       29.97S
$$

ARZ022-023-033-042-044-250000-
CENTRAL ARKANSAS

CITY           SKY/WX    TMP DP  RH WIND       PRES   REMARKS
LITTLE ROCK    MOSUNNY   88  63  43 SE9       29.92S HX  89
JACKSONVILLE   SUNNY     90  66  43 SE7       29.92R HX  92
CONWAY           N/A     88  64  45 S7G14     29.90S HX  89
SEARCY         MOSUNNY   88  69  53 E8        29.95R HX  92
HOT SPRINGS    SUNNY     78  68  71 NW3       29.92F
RUSSELLVILLE   MOSUNNY   77  68  73 SW8       29.93R
CLINTON        FAIR      90  64  43 VRB7      29.93S HX  91
$$

ARZ036-250000-
EAST ARKANSAS

CITY           SKY/WX    TMP DP  RH WIND       PRES   REMARKS
WEST MEMPHIS   MOSUNNY   78  66  66 SE6       29.94F
$$

ARZ050-053-066-070-073-250000-
SOUTHWEST ARKANSAS

CITY           SKY/WX    TMP DP  RH WIND       PRES   REMARKS
ARKADELPHIA    FAIR      81  73  76 N3        29.90F HX  86
CAMDEN         SUNNY     86  70  58 CALM      29.89S HX  90
TEXARKANA      SUNNY     87  67  51 E3        29.89S HX  90
EL DORADO      SUNNY     85  72  65 NE3       29.91S HX  91
DE QUEEN       MOSUNNY   88  68  51 E12       29.87R HX  91
$$

ARZ056-057-069-250000-
SOUTHEAST ARKANSAS

CITY           SKY/WX    TMP DP  RH WIND       PRES   REMARKS
PINE BLUFF     SUNNY     88  64  44 SE9       29.92S HX  89
STUTTGART      SUNNY     88  65  46 S7        29.93R HX  90
MONTICELLO     SUNNY     88  66  48 SE3       29.92R HX  90

$$





USA.gov is the U.S. government's official web portal to all federal, state and local government web resources and services.